Total_Precipitation_Accumulation
2.48 2.76 2.69 2.49 2.60 2.72 3.00 3.26 3.48 3.21 2.93 2.68 2.33 2.09 2.12 2.31 2.56 2.28 2.25 2.20 1.96 1.90 1.82 1.70 1.61 1.65 1.83 2.07 2.25 2.45 2.76 2.99 3.21 3.45 3.65 3.92 4.22 4.59
2.55 2.76 2.68 2.55 2.68 2.74 2.95 3.27 3.65 3.69 3.13 2.53 2.35 2.17 2.34 2.33 2.53 2.21 2.11 2.19 1.97 1.79 1.69 1.65 1.61 1.60 1.64 1.81 2.01 2.19 2.34 2.51 2.71 2.89 3.07 3.26 3.43 3.73
2.41 2.57 2.62 2.77 2.87 2.86 2.98 3.16 3.49 3.78 3.37 2.69 2.53 2.50 2.66 2.61 2.48 2.20 1.96 1.88 1.71 1.70 1.56 1.49 1.48 1.54 1.61 1.68 1.84 2.02 2.09 2.20 2.41 2.59 2.78 2.96 3.04 3.21
2.44 2.60 2.47 2.71 2.93 2.88 2.99 2.99 3.15 3.54 3.40 3.03 2.92 2.84 2.83 2.68 2.64 2.45 2.08 1.88 1.82 1.84 1.61 1.49 1.47 1.46 1.52 1.57 1.69 1.87 2.01 2.10 2.17 2.24 2.32 2.48 2.67 2.87
2.47 2.48 2.45 2.69 2.71 2.86 2.98 2.93 2.93 3.08 3.34 3.18 3.05 3.13 3.03 2.88 2.86 2.64 2.40 2.35 1.98 1.90 1.81 1.71 1.69 1.67 1.65 1.66 1.69 1.78 1.91 2.05 2.15 2.26 2.35 2.43 2.50 2.61
2.48 2.43 2.38 2.44 2.51 2.66 2.74 2.86 2.95 3.08 3.23 3.22 3.21 3.31 3.25 3.26 3.34 3.07 2.86 2.75 2.37 1.96 2.02 1.90 1.83 1.73 1.62 1.57 1.59 1.69 1.83 2.06 2.23 2.28 2.33 2.41 2.48 2.48
2.52 2.43 2.28 2.29 2.39 2.46 2.35 2.54 2.75 2.87 2.89 2.98 3.06 3.29 3.31 3.41 3.38 3.24 3.09 3.07 2.84 2.31 2.17 2.04 1.98 1.85 1.80 1.78 1.71 1.70 1.74 1.85 2.09 2.26 2.31 2.38 2.46 2.47
2.56 2.52 2.37 2.23 2.18 2.11 2.00 2.06 2.23 2.38 2.54 2.82 2.95 3.11 3.27 3.44 3.67 3.69 3.52 3.31 3.08 2.76 2.68 2.51 2.26 2.17 1.98 1.81 1.83 1.70 1.57 1.59 1.68 1.84 2.00 2.16 2.35 2.53
2.43 2.44 2.15 1.96 2.07 1.94 1.97 1.96 1.98 2.13 2.27 2.56 2.73 2.79 3.05 3.29 3.63 3.70 3.73 3.64 3.40 3.21 3.10 2.90 2.58 2.35 2.09 1.97 1.99 1.72 1.55 1.47 1.46 1.50 1.59 1.76 1.94 2.17
2.21 2.24 2.20 2.13 2.15 2.23 2.13 1.97 1.85 1.96 2.12 2.06 2.07 2.24 2.54 3.01 3.26 3.30 3.49 3.52 3.35 3.14 3.10 2.99 2.67 2.45 2.20 2.12 2.12 1.83 1.66 1.60 1.56 1.46 1.41 1.49 1.65 1.80
2.07 2.08 2.08 2.02 2.18 2.13 2.01 1.94 1.93 1.98 1.95 1.93 1.87 1.90 2.06 2.34 2.75 2.95 3.04 3.01 2.83 2.56 2.49 2.53 2.40 2.40 2.32 2.18 2.00 1.89 1.69 1.53 1.44 1.45 1.42 1.40 1.50 1.65
2.10 2.04 1.97 1.88 1.93 1.89 1.84 1.94 1.91 1.93 2.03 1.95 1.78 1.68 1.63 1.83 2.25 2.44 2.56 2.66 2.50 2.36 2.08 2.10 2.05 2.19 2.22 1.98 1.82 1.80 1.75 1.74 1.62 1.48 1.41 1.40 1.53 1.50
2.02 1.99 1.90 1.92 1.73 1.68 1.67 1.66 1.71 1.79 1.92 1.93 1.86 1.78 1.78 1.79 1.89 2.11 2.34 2.48 2.46 2.20 2.05 2.13 2.08 2.14 2.15 2.00 1.84 1.76 1.78 1.87 1.85 1.79 1.74 1.73 1.79 1.71
1.95 1.89 1.90 1.86 1.67 1.63 1.56 1.53 1.61 1.57 1.53 1.65 1.67 1.63 1.65 1.67 1.75 1.95 2.19 2.33 2.39 2.21 2.17 2.30 2.27 2.22 2.20 2.00 1.79 1.65 1.67 1.82 1.98 2.07 2.05 2.12 2.10 2.17
1.85 1.91 1.86 1.74 1.53 1.37 1.38 1.40 1.34 1.28 1.39 1.51 1.53 1.47 1.47 1.52 1.62 1.79 1.97 2.19 2.18 2.07 2.01 2.19 2.27 2.27 2.25 2.04 1.80 1.67 1.66 1.66 1.77 1.98 2.21 2.33 2.29 2.32
1.90 1.89 1.76 1.66 1.45 1.32 1.35 1.31 1.24 1.30 1.41 1.44 1.48 1.49 1.47 1.50 1.53 1.63 1.79 1.96 2.04 1.92 1.92 2.04 2.20 2.41 2.35 2.14 2.07 1.86 1.79 1.75 1.67 1.85 2.17 2.44 2.61 2.66
2.16 1.98 1.81 1.71 1.57 1.48 1.47 1.51 1.55 1.59 1.54 1.52 1.60 1.67 1.66 1.56 1.52 1.58 1.81 1.91 1.90 1.82 1.86 1.95 2.08 2.33 2.37 2.28 2.22 2.00 1.96 1.86 1.77 1.92 2.17 2.29 2.43 2.62
2.00 1.84 1.82 1.79 1.71 1.70 1.72 1.71 1.71 1.71 1.67 1.71 1.74 1.77 1.76 1.69 1.63 1.66 1.81 1.91 1.90 1.83 1.84 1.92 2.18 2.44 2.47 2.22 1.92 1.87 1.90 1.84 1.84 2.08 2.26 2.26 2.25 2.29
1.94 1.89 1.86 1.84 1.76 1.74 1.80 1.80 1.73 1.73 1.80 1.82 1.83 1.84 1.94 1.99 1.99 1.95 1.96 2.08 2.08 2.02 1.95 2.03 2.23 2.42 2.40 2.07 1.77 1.65 1.82 1.98 2.14 2.24 2.36 2.33 2.21 2.19
1.81 1.84 1.82 1.84 1.86 1.88 1.89 1.88 1.85 1.85 1.87 1.89 1.96 2.01 2.12 2.20 2.26 2.22 2.16 2.15 2.18 2.22 2.23 2.21 2.21 2.28 2.39 2.31 2.13 1.98 1.91 2.06 2.25 2.33 2.31 2.30 2.24 2.25
1.80 1.79 1.76 1.76 1.81 1.85 1.85 1.87 1.88 1.94 2.00 2.09 2.12 2.18 2.25 2.28 2.23 2.19 2.17 2.26 2.29 2.35 2.29 2.08 2.04 2.25 2.47 2.68 2.46 2.09 2.00 2.04 2.13 2.19 2.25 2.35 2.34 2.32
1.79 1.74 1.74 1.75 1.82 1.90 1.95 1.96 1.99 2.04 2.12 2.24 2.25 2.27 2.32 2.30 2.22 2.21 2.29 2.34 2.30 2.29 2.29 2.23 2.33 2.47 2.55 2.58 2.34 2.14 2.15 2.19 2.21 2.23 2.22 2.14 2.10 2.05
1.81 1.76 1.73 1.68 1.68 1.75 1.82 1.86 1.91 2.00 2.05 2.12 2.20 2.26 2.32 2.32 2.26 2.30 2.38 2.47 2.52 2.52 2.60 2.62 2.59 2.56 2.45 2.40 2.36 2.25 2.20 2.33 2.41 2.39 2.28 2.09 1.76 1.50